Location: Casteau
(50.5142°N, 4.0161°E)
Time: 21:04:35
(UTC+00:00)

Tiros 1 - Pass Details

Date: 05 August 2021
Orbit: 630 x 663 km, 48.4° (Epoch: 28 September)

Event Time Altitude Azimuth Distance (km) Brightness Sun altitude
Rises 21:28:03 0° 281° (W) 2,976 11.3 -15.9°
Reaches altitude 10° 21:30:37 10° 270° (W) 2,057 10.2 -16.1°
Maximum altitude 21:34:43 30° 210° (SSW) 1,166 8.2 -16.5°
Enters shadow 21:36:05 25° 180° (S) 1,291 8.2 -16.6°
Drops below altitude 10° 21:38:47 10° 150° (SSE) 2,030 - -16.9°
Sets 21:41:19 0° 140° (SE) 2,931 - -17.1°
